CW9366 Weather Reports


time (UTC)temp
C
wind
direction
speed
KPH
gust
KPH
rain 1hr
cm
rain 24hr
cm
rain mn
cm
humidity
%
barometer
mb
20260504180003 20 183 4.8 12.9 0.00 0.00 0.00 60 1003.3
20260504175504 20 177 3.2 11.3 0.00 0.00 0.00 60 1003.0
20260504175003 20 175 3.2 16.1 0.00 0.00 0.00 59 1002.8
20260504174503 21 183 3.2 16.1 0.00 0.00 0.00 58 1002.9
20260504174003 21 185 3.2 16.1 0.00 0.00 0.00 58 1003.0
20260504173714 21 189 3.2 16.1 0.00 0.00 0.00 57 1003.2
20260504173003 21 197 3.2 16.1 0.00 0.00 0.00 57 1003.2
20260504172504 21 194 4.8 19.3 0.00 0.00 0.00 56 1003.3
20260504172004 22 186 4.8 19.3 0.00 0.00 0.00 55 1003.3
20260504171503 22 192 3.2 14.5 0.00 0.00 0.00 55 1003.6
20260504171003 22 201 4.8 19.3 0.00 0.00 0.00 55 1003.8
20260504170504 22 198 3.2 19.3 0.00 0.00 0.00 56 1003.8
20260504151003 17 172 1.6 16.1 0.00 0.00 0.00 70 1004.2
20260504150503 17 167 3.2 16.1 0.00 0.00 0.00 70 1004.0
20260504141003 18 196 0.0 4.8 0.00 0.00 0.00 64 1005.4
20260504140503 18 184 0.0 6.4 0.00 0.00 0.00 63 1005.4
20260504130503 18 0 0.0 0.0 0.00 0.00 0.00 66 1005.8
20260504120213 15 0 0.0 0.0 0.00 0.00 0.00 72 1006.2
20260504110715 13 0 0.0 0.0 0.00 0.00 0.00 80 1005.8
20260504100503 15 0 0.0 0.0 0.00 0.00 0.00 71 1006.4
20260504082003 15 0 0.0 0.0 0.00 0.00 0.00 71 1006.1
20260504081503 15 0 0.0 0.0 0.00 0.00 0.00 70 1006.3
20260504081003 15 0 0.0 0.0 0.00 0.00 0.00 70 1006.2
20260504080504 15 0 0.0 0.0 0.00 0.00 0.00 69 1006.3
20260504080215 15 0 0.0 0.0 0.00 0.00 0.00 69 1006.3
20260504050503 17 0 0.0 0.0 0.00 0.00 0.00 67 1006.5
20260504050005 17 0 0.0 0.0 0.00 0.00 0.00 67 1006.5
20260504045503 17 0 0.0 0.0 0.00 0.00 0.00 67 1006.4
20260504045003 17 0 0.0 0.0 0.00 0.00 0.00 67 1006.3
20260504044504 16 0 0.0 0.0 0.00 0.00 0.00 68 1006.4
20260504044003 16 0 0.0 0.0 0.00 0.00 0.00 67 1006.4
20260504043717 17 0 0.0 0.0 0.00 0.00 0.00 67 1006.3
20260504043215 17 0 0.0 0.0 0.00 0.00 0.00 67 1006.5
20260504042504 17 0 0.0 0.0 0.00 0.00 0.00 68 1006.6
20260504042003 17 0 0.0 0.0 0.00 0.00 0.00 67 1006.7
20260504041503 17 0 0.0 0.0 0.00 0.00 0.00 66 1006.8
20260504041003 17 0 0.0 0.0 0.00 0.00 0.00 65 1007.1
20260504040503 18 0 0.0 0.0 0.00 0.00 0.00 64 1007.2
20260504040004 18 0 0.0 0.0 0.00 0.00 0.00 62 1007.2
20260504035503 18 0 0.0 0.0 0.00 0.00 0.00 63 1007.2
20260504035003 19 0 0.0 0.0 0.00 0.00 0.00 61 1007.3
20260504034503 20 0 0.0 0.0 0.00 0.00 0.00 59 1007.6
20260504034214 20 0 0.0 0.0 0.00 0.00 0.00 57 1007.3
20260504033718 20 0 0.0 0.0 0.00 0.00 0.00 55 1007.2
20260504033003 20 0 0.0 0.0 0.00 0.00 0.00 54 1007.1
20260504032503 20 0 0.0 0.0 0.00 0.00 0.00 55 1006.8
20260504032003 20 0 0.0 0.0 0.00 0.00 0.00 56 1007.2
20260504031714 20 0 0.0 0.0 0.00 0.00 0.00 56 1007.1
20260504031003 20 0 0.0 0.0 0.00 0.00 0.00 57 1007.2
20260504030503 20 0 0.0 0.0 0.00 0.00 0.00 59 1007.1
20260504030004 19 0 0.0 0.0 0.00 0.00 0.00 59 1007.3
20260504025503 19 0 0.0 0.0 0.00 0.00 0.00 60 1007.3
20260504025003 19 0 0.0 0.0 0.00 0.00 0.00 61 1007.2
20260504024503 19 0 0.0 0.0 0.00 0.00 0.00 62 1007.2
20260504024003 18 0 0.0 0.0 0.00 0.00 0.00 64 1007.2
20260504023503 18 0 0.0 0.0 0.00 0.00 0.00 67 1007.1
20260504023003 18 0 0.0 0.0 0.00 0.00 0.00 67 1007.1
20260504022714 18 0 0.0 0.0 0.00 0.00 0.00 67 1007.2
20260504022003 18 0 0.0 0.0 0.00 0.00 0.00 67 1007.2
20260504021503 18 0 0.0 0.0 0.00 0.00 0.00 66 1007.2
20260504021003 18 0 0.0 0.0 0.00 0.00 0.00 66 1007.2
20260504020716 18 0 0.0 0.0 0.00 0.00 0.00 67 1007.1
20260504020003 19 0 0.0 0.0 0.00 0.00 0.00 65 1007.0
20260504015503 19 0 0.0 0.0 0.00 0.00 0.00 64 1007.1
20260504015003 19 0 0.0 0.0 0.00 0.00 0.00 64 1007.1
20260504014503 20 0 0.0 0.0 0.00 0.00 0.00 62 1007.1
20260504014216 20 0 0.0 0.0 0.00 0.00 0.00 62 1007.1
20260504013503 20 0 0.0 0.0 0.00 0.00 0.00 60 1007.1
20260504013003 20 0 0.0 0.0 0.00 0.00 0.00 58 1007.1
20260504012503 21 0 0.0 0.0 0.00 0.00 0.00 56 1007.1
20260504012213 21 0 0.0 0.0 0.00 0.00 0.00 55 1007.1
20260504011716 21 0 0.0 0.0 0.00 0.00 0.00 54 1007.0
20260504011003 21 0 0.0 0.0 0.00 0.00 0.00 53 1006.9
20260504010717 21 0 0.0 0.0 0.00 0.00 0.00 52 1006.9
20260504010004 22 0 0.0 0.0 0.00 0.00 0.00 50 1006.7
20260504005503 22 0 0.0 0.0 0.00 0.00 0.00 49 1006.8
20260504005004 22 0 0.0 0.0 0.00 0.00 0.00 49 1006.8
20260504004713 22 0 0.0 0.0 0.00 0.00 0.00 49 1006.7
20260504004003 23 0 0.0 0.0 0.00 0.00 0.00 48 1006.7
20260504003503 23 0 0.0 0.0 0.00 0.00 0.00 48 1006.6
20260504003003 23 0 0.0 0.0 0.00 0.00 0.00 45 1006.5
20260504002503 23 0 0.0 0.0 0.00 0.00 0.00 44 1006.6
20260504002003 23 0 0.0 0.0 0.00 0.00 0.00 43 1006.6
20260504001503 24 0 0.0 0.0 0.00 0.00 0.00 43 1006.6
20260504001003 24 0 0.0 0.0 0.00 0.00 0.00 45 1006.6
20260504000503 24 0 0.0 0.0 0.00 0.00 0.00 43 1006.7
20260504000004 24 0 0.0 0.0 0.00 0.00 0.00 44 1006.7
20260503235503 24 0 0.0 0.0 0.00 0.00 0.00 43 1006.7
20260503235004 24 0 0.0 0.0 0.00 0.00 0.00 41 1006.8
20260503234503 24 0 0.0 0.0 0.00 0.00 0.00 40 1006.7
20260503234003 25 0 0.0 0.0 0.00 0.00 0.00 41 1006.8
20260503233503 25 192 0.0 9.7 0.00 0.00 0.00 40 1006.8
20260503233003 25 212 0.0 9.7 0.00 0.00 0.00 39 1006.9
20260503232503 25 249 1.6 12.9 0.00 0.00 0.00 40 1006.8
20260503232003 25 258 1.6 12.9 0.00 0.00 0.00 40 1006.8
20260503231504 25 247 3.2 12.9 0.00 0.00 0.00 38 1006.9
20260503231003 25 247 3.2 14.5 0.00 0.00 0.00 38 1006.9
20260503230713 25 263 1.6 14.5 0.00 0.00 0.00 37 1007.0
20260503230004 25 238 4.8 24.1 0.00 0.00 0.00 37 1007.0
20260503225503 26 245 6.4 24.1 0.00 0.00 0.00 36 1007.0
20260503225003 26 256 4.8 22.5 0.00 0.00 0.00 37 1007.0
20260503224503 26 251 3.2 14.5 0.00 0.00 0.00 38 1007.0
20260503224003 26 253 6.4 22.5 0.00 0.00 0.00 35 1007.1
20260503223503 26 262 6.4 22.5 0.00 0.00 0.00 36 1007.2
20260503223004 26 260 6.4 16.1 0.00 0.00 0.00 36 1007.1
20260503222717 26 246 4.8 16.1 0.00 0.00 0.00 36 1007.2
20260503222003 25 249 6.4 22.5 0.00 0.00 0.00 36 1007.1
20260503221503 26 243 8.0 22.5 0.00 0.00 0.00 35 1007.4
20260503221003 26 252 8.0 19.3 0.00 0.00 0.00 35 1007.2
20260503220713 26 265 8.0 19.3 0.00 0.00 0.00 35 1007.4
20260503220004 26 257 6.4 17.7 0.00 0.00 0.00 35 1007.4
20260503215503 26 260 8.0 19.3 0.00 0.00 0.00 35 1007.5
20260503215003 26 253 9.7 19.3 0.00 0.00 0.00 34 1007.7
20260503214503 26 245 8.0 19.3 0.00 0.00 0.00 34 1007.8
20260503214003 26 237 8.0 19.3 0.00 0.00 0.00 34 1007.7
20260503213503 26 242 8.0 19.3 0.00 0.00 0.00 35 1007.8
20260503213003 26 257 9.7 30.6 0.00 0.00 0.00 33 1007.7
20260503212503 25 255 9.7 30.6 0.00 0.00 0.00 35 1007.9
20260503212003 25 256 9.7 27.4 0.00 0.00 0.00 34 1007.8
20260503211503 25 260 8.0 25.7 0.00 0.00 0.00 34 1008.0
20260503211004 26 250 4.8 29.0 0.00 0.00 0.00 36 1008.0
20260503210503 25 234 6.4 29.0 0.00 0.00 0.00 38 1008.0
20260503210217 25 239 9.7 29.0 0.00 0.00 0.00 37 1008.2
20260503205503 25 252 8.0 22.5 0.00 0.00 0.00 34 1008.3
20260503205213 25 245 8.0 22.5 0.00 0.00 0.00 35 1008.2
20260503204503 25 218 9.7 24.1 0.00 0.00 0.00 34 1008.4
20260503204003 25 211 6.4 24.1 0.00 0.00 0.00 35 1008.4
20260503203503 25 211 4.8 19.3 0.00 0.00 0.00 36 1008.4
20260503203003 24 208 4.8 19.3 0.00 0.00 0.00 36 1008.5
20260503202503 24 209 6.4 24.1 0.00 0.00 0.00 34 1008.6
20260503202003 24 210 9.7 24.1 0.00 0.00 0.00 37 1008.6
20260503201503 23 209 9.7 27.4 0.00 0.00 0.00 37 1008.6
20260503201003 23 209 9.7 27.4 0.00 0.00 0.00 36 1008.8
20260503200715 23 218 8.0 27.4 0.00 0.00 0.00 36 1008.9
20260503200003 23 189 8.0 35.4 0.00 0.00 0.00 39 1008.9
20260503195503 23 193 8.0 35.4 0.00 0.00 0.00 36 1009.2
20260503195004 23 200 6.4 24.1 0.00 0.00 0.00 37 1009.2
20260503194717 23 205 6.4 24.1 0.00 0.00 0.00 37 1009.2
20260503194003 23 201 9.7 25.7 0.00 0.00 0.00 39 1009.5
20260503193712 23 197 11.3 32.2 0.00 0.00 0.00 37 1009.6
20260503193003 23 194 9.7 32.2 0.00 0.00 0.00 37 1009.6
20260503192503 23 202 6.4 19.3 0.00 0.00 0.00 38 1009.9
20260503192003 23 205 6.4 20.9 0.00 0.00 0.00 39 1009.9
20260503191714 23 201 8.0 22.5 0.00 0.00 0.00 38 1010.0
20260503191003 22 198 8.0 22.5 0.00 0.00 0.00 40 1010.3
20260503190503 22 190 6.4 19.3 0.00 0.00 0.00 39 1010.4
20260503190004 23 197 4.8 17.7 0.00 0.00 0.00 39 1010.6
20260503185503 22 194 4.8 20.9 0.00 0.00 0.00 41 1010.6
20260503185003 22 191 8.0 25.7 0.00 0.00 0.00 41 1010.8
20260503184503 22 198 8.0 25.7 0.00 0.00 0.00 38 1010.9
20260503184003 22 197 6.4 22.5 0.00 0.00 0.00 41 1011.0
20260503183503 22 199 4.8 17.7 0.00 0.00 0.00 39 1011.1
20260503183003 22 206 4.8 17.7 0.00 0.00 0.00 42 1011.3
20260503182714 22 215 6.4 19.3 0.00 0.00 0.00 40 1011.3
20260503182004 22 218 6.4 24.1 0.00 0.00 0.00 40 1011.5
20260503181504 21 206 8.0 27.4 0.00 0.00 0.00 42 1011.4
20260503181004 21 194 9.7 29.0 0.00 0.00 0.00 40 1011.7
20260503180716 21 188 9.7 29.0 0.00 0.00 0.00 40 1011.7